Weather History for KFQD - December, 2013

Change the Weather History Date:

Tuesday, December 24, 2013

  Actual Average (KAVL) Record (KAVL)
Temperature  
Mean Temperature 35 °F 38 °F  
Max Temperature 44 °F 48 °F 72 °F (1955)
Min Temperature 26 °F 28 °F -5 °F (1983)
Degree Days  
Heating Degree Days 30 27  
Month to date heating degree days 601  
Since 1 July heating degree days 1468  
Cooling Degree Days 0 0  
Month to date cooling degree days 0  
Year to date cooling degree days 863  
Moisture  
Dew Point 22 °F    
Average Humidity 59    
Maximum Humidity 90    
Minimum Humidity 38    
Precipitation  
Precipitation 0.00 in 0.11 in 1.89 in (2002)
Month to date precipitation 2.86  
Year to date precipitation 44.84  
Snow  
Snow 0.00 in 0.10 in 12.00 in (1876)
Month to date snowfall 0.5  
Since 1 July snowfall 0.6  
Snow Depth -    
Sea Level Pressure  
Sea Level Pressure 30.30 in    
Wind  
Wind Speed 5 mph (North)    
Max Wind Speed 14 mph    
Max Gust Speed 21 mph    
Visibility 10 miles    
Events      
T = Trace of Precipitation, MM = Missing Value Source: NWS Daily Summary

Daily Weather History Graph

Daily Weather History Graph

Search for Another Location

Airport or City:

Trip Planner

Search our weather history database for the weather conditions in past years. The results will help you decide how hot, cold, wet, or windy it might be!

Date:

Astronomy

Dec. 24, 2013 Rise Set
Actual Time 7:34 AM EST 5:20 PM EST
Civil Twilight 7:06 AM EST 5:48 PM EST
Nautical Twilight 6:34 AM EST 6:20 PM EST
Astronomical Twilight 6:03 AM EST 6:51 PM EST
Moon No Moon Rise 11:41 AM EST (12/24)
Length of Visible Light 10h 42m
Length of Day
9h 46m
Waning Gibbous, 59% of the Moon is Illuminated
Dec 24
Waning Gibbous
Dec 25
Last Quarter
Jan 1
New
Jan 7
First Quarter
Jan 15
Full

Hourly Weather History & Observations

Time (EST) Temp. Windchill Dew Point Humidity Pressure Visibility Wind Dir Wind Speed Gust Speed Precip Events Conditions
12:15 AM 40.5 °F 36.5 °F 31.5 °F 70% 30.19 in 10.0 mi North 5.8 mph - N/A   Overcast
12:35 AM 40.6 °F 36.0 °F 31.1 °F 69% 30.18 in 10.0 mi North 6.9 mph - N/A   Overcast
12:55 AM 40.3 °F 37.1 °F 30.6 °F 68% 30.19 in 10.0 mi North 4.6 mph - N/A   Overcast
1:15 AM 40.3 °F 33.9 °F 29.3 °F 65% 30.18 in 10.0 mi North 10.4 mph - N/A   Overcast
1:35 AM 40.1 °F 35.3 °F 29.1 °F 65% 30.18 in 10.0 mi North 6.9 mph - N/A   Overcast
1:55 AM 39.9 °F 35.1 °F 28.9 °F 65% 30.19 in 10.0 mi North 6.9 mph - N/A   Overcast
2:15 AM 39.4 °F 36.1 °F 28.4 °F 65% 30.19 in 10.0 mi North 4.6 mph - N/A   Overcast
2:35 AM 38.7 °F 34.3 °F 28.4 °F 67% 30.19 in 10.0 mi North 5.8 mph - N/A   Mostly Cloudy
2:55 AM 38.3 °F 33.9 °F 27.7 °F 66% 30.18 in 10.0 mi North 5.8 mph - N/A   Mostly Cloudy
3:15 AM 37.6 °F 35.1 °F 27.7 °F 67% 30.19 in 10.0 mi NNW 3.5 mph - N/A   Overcast
3:35 AM 37.4 °F 32.8 °F 26.6 °F 65% 30.20 in 10.0 mi North 5.8 mph - N/A   Scattered Clouds
3:55 AM 36.5 °F 33.9 °F 26.8 °F 68% 30.21 in 10.0 mi North 3.5 mph - N/A   Clear
4:15 AM 35.4 °F 32.6 °F 26.6 °F 70% 30.21 in 10.0 mi North 3.5 mph - N/A   Clear
4:35 AM 34.9 °F - 26.6 °F 72% 30.21 in 10.0 mi Calm Calm - N/A   Clear
4:55 AM 34.3 °F 30.2 °F 26.6 °F 73% 30.21 in 10.0 mi NNW 4.6 mph - N/A   Clear
5:15 AM 33.4 °F - 26.8 °F 77% 30.20 in 10.0 mi Calm Calm - N/A   Clear
5:35 AM 33.1 °F 30.0 °F 27.0 °F 78% 30.21 in 10.0 mi NW 3.5 mph - N/A   Clear
5:55 AM 32.5 °F 29.3 °F 27.0 °F 80% 30.22 in 10.0 mi NNW 3.5 mph - N/A   Clear
6:15 AM 32.0 °F - 27.1 °F 82% 30.23 in 10.0 mi Calm Calm - N/A   Clear
6:35 AM 32.0 °F 28.7 °F 26.4 °F 80% 30.23 in 10.0 mi North 3.5 mph - N/A   Clear
6:55 AM 31.6 °F - 26.4 °F 81% 30.24 in 10.0 mi Calm Calm - N/A   Clear
7:15 AM 32.0 °F - 26.2 °F 79% 30.24 in 10.0 mi Calm Calm - N/A   Clear
7:35 AM 31.3 °F - 26.4 °F 82% 30.25 in 10.0 mi Calm Calm - N/A   Clear
7:55 AM 29.5 °F - 27.0 °F 90% 30.25 in 10.0 mi Calm Calm - N/A   Clear
8:15 AM 32.0 °F - 27.7 °F 84% 30.26 in 10.0 mi Calm Calm - N/A   Clear
8:35 AM 32.5 °F 28.1 °F 28.9 °F 87% 30.27 in 10.0 mi North 4.6 mph - N/A   Clear
8:55 AM 35.4 °F - 29.7 °F 80% 30.28 in 10.0 mi Calm Calm - N/A   Clear
9:15 AM 37.4 °F 32.8 °F 28.9 °F 71% 30.29 in 10.0 mi North 5.8 mph - N/A   Clear
9:35 AM 38.7 °F 35.2 °F 28.4 °F 67% 30.29 in 10.0 mi North 4.6 mph - N/A   Clear
9:55 AM 40.1 °F 36.9 °F 28.0 °F 62% 30.30 in 10.0 mi North 4.6 mph - N/A   Clear
10:15 AM 41.7 °F 38.8 °F 28.2 °F 59% 30.30 in 10.0 mi NW 4.6 mph - N/A   Clear
10:35 AM 41.7 °F 38.8 °F 26.8 °F 55% 30.31 in 10.0 mi NNW 4.6 mph - N/A   Clear
10:55 AM 42.8 °F - 26.2 °F 52% 30.31 in 10.0 mi Calm Calm - N/A   Clear
11:15 AM 43.0 °F 37.2 °F 23.5 °F 46% 30.31 in 10.0 mi West 10.4 mph 16.1 mph N/A   Clear
11:35 AM 43.7 °F 38.6 °F 23.5 °F 45% 30.31 in 10.0 mi NW 9.2 mph 17.3 mph N/A   Clear
11:55 AM 43.9 °F 37.2 °F 22.8 °F 43% 30.30 in 10.0 mi WNW 13.8 mph 20.7 mph N/A   Clear
12:15 PM 43.0 °F 36.0 °F 21.9 °F 43% 30.31 in 10.0 mi WNW 13.8 mph 19.6 mph N/A   Clear
12:35 PM 42.4 °F 36.1 °F 21.4 °F 43% 30.29 in 10.0 mi WNW 11.5 mph 18.4 mph N/A   Clear
12:55 PM 40.5 °F 35.1 °F 20.1 °F 44% 30.30 in 10.0 mi West 8.1 mph - N/A   Clear
1:15 PM 41.4 °F 35.2 °F 20.7 °F 44% 30.30 in 10.0 mi West 10.4 mph - N/A   Scattered Clouds
1:35 PM 42.3 °F 36.3 °F 19.6 °F 40% 30.30 in 10.0 mi West 10.4 mph 16.1 mph N/A   Clear
1:55 PM 42.6 °F 37.2 °F 19.6 °F 40% 30.30 in 10.0 mi West 9.2 mph - N/A   Scattered Clouds
2:15 PM 43.0 °F 40.3 °F 19.6 °F 39% 30.30 in 10.0 mi North 4.6 mph - N/A   Scattered Clouds
2:35 PM 43.0 °F 40.3 °F 20.5 °F 41% 30.30 in 10.0 mi NNW 4.6 mph - N/A   Scattered Clouds
2:55 PM 42.6 °F 37.8 °F 19.8 °F 40% 30.30 in 10.0 mi NW 8.1 mph - N/A   Scattered Clouds
3:15 PM 42.1 °F - 18.1 °F 38% 30.31 in 10.0 mi Calm Calm - N/A   Clear
3:35 PM 42.8 °F 39.3 °F 18.5 °F 38% 30.31 in 10.0 mi West 5.8 mph - N/A   Clear
3:55 PM 40.6 °F 37.5 °F 18.0 °F 40% 30.32 in 10.0 mi NNE 4.6 mph - N/A   Clear
4:15 PM 39.2 °F 34.2 °F 17.6 °F 42% 30.33 in 10.0 mi North 6.9 mph - N/A   Clear
4:35 PM 38.7 °F 35.2 °F 17.2 °F 42% 30.34 in 10.0 mi NNE 4.6 mph - N/A   Clear
4:55 PM 37.6 °F 33.1 °F 15.6 °F 41% 30.34 in 10.0 mi NNE 5.8 mph - N/A   Clear
5:15 PM 36.0 °F 31.1 °F 15.4 °F 43% 30.35 in 10.0 mi NNE 5.8 mph - N/A   Clear
5:35 PM 34.9 °F 28.3 °F 15.6 °F 45% 30.35 in 10.0 mi NNE 8.1 mph - N/A   Clear
5:55 PM 34.0 °F 31.0 °F 16.0 °F 48% 30.37 in 10.0 mi North 3.5 mph - N/A   Clear
6:15 PM 32.9 °F - 16.5 °F 51% 30.37 in 10.0 mi Calm Calm - N/A   Clear
6:35 PM 32.4 °F 29.1 °F 15.8 °F 51% 30.38 in 10.0 mi North 3.5 mph - N/A   Clear
6:55 PM 32.0 °F 28.7 °F 16.0 °F 52% 30.38 in 10.0 mi North 3.5 mph - N/A   Clear
7:15 PM 31.3 °F 26.6 °F 15.8 °F 53% 30.38 in 10.0 mi North 4.6 mph - N/A   Clear
7:35 PM 31.1 °F - 15.6 °F 53% 30.39 in 10.0 mi Calm Calm - N/A   Clear
7:55 PM 30.6 °F 25.8 °F 15.1 °F 53% 30.39 in 10.0 mi NNE 4.6 mph - N/A   Clear
8:15 PM 31.1 °F 24.5 °F 14.9 °F 51% 30.40 in 10.0 mi NE 6.9 mph - N/A   Clear
8:35 PM 30.7 °F 24.1 °F 14.9 °F 52% 30.40 in 10.0 mi NE 6.9 mph - N/A   Clear
8:55 PM 30.2 °F 24.3 °F 14.7 °F 53% 30.40 in 10.0 mi NNE 5.8 mph - N/A   Clear
9:15 PM 30.0 °F 26.5 °F 14.9 °F 53% 30.41 in 10.0 mi NE 3.5 mph - N/A   Clear
9:35 PM 29.7 °F - 14.9 °F 54% 30.41 in 10.0 mi Calm Calm - N/A   Clear
9:55 PM 28.9 °F - 15.4 °F 57% 30.41 in 10.0 mi Calm Calm - N/A   Clear
10:15 PM 28.4 °F - 15.4 °F 58% 30.41 in 10.0 mi Calm Calm - N/A   Clear
10:35 PM 27.1 °F - 17.8 °F 68% 30.43 in 10.0 mi Calm Calm - N/A   Clear
10:55 PM 28.9 °F 23.9 °F 14.7 °F 55% 30.41 in 10.0 mi North 4.6 mph - N/A   Clear
11:15 PM 28.2 °F - 15.4 °F 59% 30.42 in 10.0 mi Calm Calm - N/A   Clear
11:35 PM 28.4 °F 23.3 °F 14.9 °F 57% 30.43 in 10.0 mi North 4.6 mph - N/A   Clear
11:55 PM 26.6 °F 22.6 °F 16.7 °F 66% 30.43 in 10.0 mi North 3.5 mph - N/A   Clear